TimeCDT,TemperatureF,Dew PointF,Humidity,Sea Level PressureIn,VisibilityMPH,Wind Direction,Wind SpeedMPH,Gust SpeedMPH,PrecipitationIn,Events,Conditions,WindDirDegrees,DateUTC
12:58 AM,78.3,36.0,22,29.59,10.0,West,6.9,-,N/A,,Clear,260,2013-05-20 05:58:00
1:58 AM,70.5,41.2,35,29.60,10.0,WNW,3.5,-,N/A,,Clear,300,2013-05-20 06:58:00
2:58 AM,62.2,44.1,51,29.61,10.0,SSE,3.5,-,N/A,,Scattered Clouds,150,2013-05-20 07:58:00
3:58 AM,61.7,53.1,73,29.60,10.0,SSE,4.6,-,N/A,,Clear,160,2013-05-20 08:58:00
4:58 AM,69.3,60.6,74,29.62,10.0,SW,5.8,-,N/A,,Clear,230,2013-05-20 09:58:00
5:58 AM,66.6,56.3,69,29.63,10.0,WNW,2.3,-,N/A,,Clear,300,2013-05-20 10:58:00
6:58 AM,59.7,54.7,83,29.65,10.0,WNW,2.3,-,N/A,,Clear,300,2013-05-20 11:58:00
7:58 AM,66.6,59.7,79,29.66,10.0,East,3.5,-,N/A,,Clear,80,2013-05-20 12:58:00
8:58 AM,74.8,47.5,38,29.68,10.0,SSE,5.8,-,N/A,,Clear,160,2013-05-20 13:58:00
9:58 AM,79.0,44.2,29,29.67,10.0,WSW,5.8,-,N/A,,Clear,240,2013-05-20 14:58:00
10:58 AM,81.3,47.5,30,29.69,10.0,West,8.1,-,N/A,,Clear,260,2013-05-20 15:58:00
11:58 AM,84.2,49.6,30,29.68,10.0,NNW,5.8,-,N/A,,Clear,330,2013-05-20 16:58:00
1:58 PM,88.9,51.3,27,29.65,10.0,NW,4.6,-,N/A,,Clear,320,2013-05-20 18:58:00
2:58 PM,90.9,48.9,24,29.64,10.0,NNW,4.6,-,N/A,,Clear,340,2013-05-20 19:58:00
3:58 PM,94.6,42.4,16,29.60,10.0,West,11.5,-,N/A,,Clear,260,2013-05-20 20:58:00
4:58 PM,94.8,43.3,17,29.57,10.0,NW,6.9,16.1,N/A,,Clear,310,2013-05-20 21:58:00
5:54 PM,96.8,32.0,10,29.61,10.0,WSW,15.0,21.9,N/A,,Clear,240,2013-05-20 22:54:00
5:58 PM,96.4,33.3,11,29.56,10.0,WSW,11.5,21.9,N/A,,Clear,240,2013-05-20 22:58:00
6:58 PM,95.2,34.3,12,29.56,10.0,WNW,11.5,-,N/A,,Clear,290,2013-05-20 23:58:00
7:32 PM,84.2,59.0,42,29.63,10.0,NNE,23.0,31.1,N/A,,Partly Cloudy,20,2013-05-21 00:32:00
7:58 PM,84.2,58.3,41,29.62,10.0,NE,20.7,27.6,N/A,,Partly Cloudy,40,2013-05-21 00:58:00
8:58 PM,79.7,59.4,50,29.67,10.0,ENE,15.0,-,N/A,,Scattered Clouds,60,2013-05-21 01:58:00
9:58 PM,74.7,61.0,62,29.70,10.0,East,11.5,-,N/A,,Scattered Clouds,80,2013-05-21 02:58:00
10:58 PM,72.3,60.6,67,29.73,10.0,NNE,12.7,23.0,N/A,,Partly Cloudy,30,2013-05-21 03:58:00
11:58 PM,70.3,62.6,76,29.72,10.0,NE,8.1,-,N/A,,Clear,50,2013-05-21 04:58:00